Starlink 5754

operational
NORAD ID: 55579 Int'l Des: 2023-020 Owner: SPXS Country: US Constellation: starlink
LEOCIRCULAR

关于 Starlink 5754

正在加载描述...

实时位置

正在加载3D地球...

即将过境

高度历史

Altitude vs Time

uPlot chart will show altitude changes over time

两行轨道根数

1 55579U 23020L 25354.60365408 -.00000072 00000-0 97574-5 0 9996
2 55579 43.0033 74.2911 0001354 272.4058 87.6629 15.02536208157026
Epoch: Dec 20, 2025 • Age: 16 hours

当前状态

高度 558.6 km
速度 7.58 km/s
星下点 1.76°N, 114.34°W
发射日期 Feb 12, 2023
运行时间 2.8 years
类型 internet

技术详情

分类 Payload
质量 305.00 kg
干质量 290.00 kg
总质量 305.00 kg
长度 0.20 m
直径 2.80 m
跨度 9.00 m
形状 Box + pan
制造商 SPXS
平台类型 Starlink
阶段状态 In Orbit
所有者/国家 SPXS/US

大型星座

Loading constellations...